ANA289 RJFF-RJCC

Flight info

Callsign ANA289
Flight time N/A
Altitude 37000
Route BUTUR Y453 MARCO Y141 SAMON Y14 GOLDO Y19 MRE Y13 SIRAO Y139 NAVER
Aircraft B772/H-SDE2E3FGHIJ5LORVWXY/LB1D1

Departure

Time 2026-05-09 07:05
Airport Fukuoka Airport (RJFF)

Arrival

Time N/A
Airport New Chitose Airport (RJCC)
Time Latitude Longitude Altitude Speed Heading
2026-05-09 06:12 33.59629 130.44787 29 ft 0 kts 61°
2026-05-09 06:49 33.59623 130.44776 29 ft 4 kts 61°
2026-05-09 06:49 33.59611 130.44748 27 ft 2 kts 61°
2026-05-09 06:49 33.59602 130.44725 28 ft 4 kts 96°
2026-05-09 06:49 33.59613 130.44700 26 ft 4 kts 146°
2026-05-09 06:50 33.59635 130.44685 29 ft 4 kts 151°
2026-05-09 06:50 33.59647 130.44677 29 ft 0 kts 151°
2026-05-09 06:54 33.59641 130.44681 30 ft 4 kts 151°
2026-05-09 06:54 33.59615 130.44698 30 ft 4 kts 150°
2026-05-09 06:54 33.59589 130.44716 30 ft 4 kts 151°
2026-05-09 06:54 33.59577 130.44723 30 ft 0 kts 151°
2026-05-09 06:56 33.59551 130.44740 30 ft 9 kts 151°
2026-05-09 06:57 33.59497 130.44775 29 ft 9 kts 151°
2026-05-09 06:57 33.59442 130.44812 29 ft 9 kts 150°
2026-05-09 06:57 33.59381 130.44846 29 ft 10 kts 167°
2026-05-09 06:57 33.59312 130.44852 29 ft 10 kts 181°
2026-05-09 06:58 33.59243 130.44855 29 ft 10 kts 165°
2026-05-09 06:58 33.59177 130.44896 29 ft 14 kts 150°
2026-05-09 06:58 33.59056 130.44979 31 ft 22 kts 150°
2026-05-09 06:58 33.58924 130.45069 35 ft 22 kts 150°
2026-05-09 06:59 33.58813 130.45146 36 ft 12 kts 150°
2026-05-09 06:59 33.58742 130.45195 39 ft 12 kts 150°
2026-05-09 06:59 33.58671 130.45245 40 ft 12 kts 150°
2026-05-09 06:59 33.58599 130.45293 38 ft 12 kts 151°
2026-05-09 07:00 33.58528 130.45341 39 ft 12 kts 150°
2026-05-09 07:00 33.58456 130.45390 39 ft 12 kts 150°
2026-05-09 07:00 33.58382 130.45440 38 ft 12 kts 150°
2026-05-09 07:00 33.58306 130.45492 38 ft 12 kts 150°
2026-05-09 07:01 33.58224 130.45547 38 ft 16 kts 150°
2026-05-09 07:01 33.58122 130.45617 41 ft 17 kts 150°
2026-05-09 07:01 33.58019 130.45688 44 ft 17 kts 149°
2026-05-09 07:01 33.57917 130.45760 48 ft 17 kts 149°
2026-05-09 07:02 33.57813 130.45829 48 ft 17 kts 152°
2026-05-09 07:02 33.57711 130.45899 50 ft 17 kts 149°
2026-05-09 07:02 33.57611 130.45953 50 ft 16 kts 175°
2026-05-09 07:02 33.57558 130.45911 49 ft 3 kts 238°
2026-05-09 07:03 33.57557 130.45910 49 ft 0 kts 238°
2026-05-09 07:03 33.57545 130.45886 49 ft 13 kts 240°
2026-05-09 07:03 33.57522 130.45830 47 ft 7 kts 256°
2026-05-09 07:04 33.57542 130.45790 49 ft 0 kts 319°
2026-05-09 07:05 33.57615 130.45733 48 ft 37 kts 331°
2026-05-09 07:05 33.58031 130.45452 45 ft 101 kts 330°
2026-05-09 07:05 33.58813 130.44921 54 ft 155 kts 330°
2026-05-09 07:05 33.59758 130.44216 636 ft 161 kts 329°
2026-05-09 07:06 33.60755 130.43466 1315 ft 172 kts 330°
2026-05-09 07:06 33.61820 130.42760 1905 ft 180 kts 331°
2026-05-09 07:06 33.63026 130.41966 1999 ft 213 kts 331°
2026-05-09 07:06 33.64417 130.41245 1982 ft 225 kts 350°
2026-05-09 07:07 33.65956 130.41487 2150 ft 232 kts 24°
2026-05-09 07:07 33.67187 130.42763 2773 ft 238 kts 53°
2026-05-09 07:07 33.68031 130.44492 3276 ft 246 kts 60°
2026-05-09 07:07 33.68867 130.46284 3900 ft 246 kts 64°
2026-05-09 07:08 33.69252 130.48283 4399 ft 250 kts 96°
2026-05-09 07:08 33.68652 130.50200 5131 ft 248 kts 128°
2026-05-09 07:08 33.67340 130.51538 5649 ft 250 kts 150°
2026-05-09 07:08 33.65799 130.52585 6083 ft 260 kts 152°
2026-05-09 07:09 33.64211 130.53657 6695 ft 263 kts 153°
2026-05-09 07:09 33.62541 130.54601 7280 ft 264 kts 158°
2026-05-09 07:09 33.60847 130.55435 7878 ft 267 kts 159°
2026-05-09 07:09 33.59114 130.56277 8470 ft 269 kts 159°
2026-05-09 07:10 33.57354 130.57136 8982 ft 276 kts 159°
2026-05-09 07:10 33.55571 130.58018 9610 ft 279 kts 159°
2026-05-09 07:10 33.53767 130.58914 10146 ft 282 kts 159°
2026-05-09 07:10 33.51937 130.59824 10687 ft 287 kts 159°
2026-05-09 07:11 33.50085 130.60750 11358 ft 290 kts 159°
2026-05-09 07:11 33.48208 130.61694 12037 ft 295 kts 159°
2026-05-09 07:11 33.46325 130.62639 12740 ft 301 kts 159°
2026-05-09 07:11 33.44329 130.63698 13042 ft 321 kts 151°
2026-05-09 07:12 33.42599 130.65518 13179 ft 342 kts 128°
2026-05-09 07:12 33.41116 130.67815 13364 ft 367 kts 127°
2026-05-09 07:12 33.39495 130.70282 13756 ft 386 kts 128°
2026-05-09 07:12 33.37783 130.72822 14371 ft 397 kts 129°
2026-05-09 07:13 33.36017 130.75403 15119 ft 403 kts 129°
2026-05-09 07:13 33.34227 130.78006 15944 ft 408 kts 130°
2026-05-09 07:13 33.32526 130.80716 16599 ft 410 kts 118°
2026-05-09 07:13 33.31620 130.83962 17198 ft 416 kts 95°
2026-05-09 07:14 33.31646 130.87412 17950 ft 416 kts 76°
2026-05-09 07:14 33.32386 130.90744 18552 ft 417 kts 68°
2026-05-09 07:14 33.33280 130.94082 19049 ft 426 kts 68°
2026-05-09 07:14 33.34168 130.97502 19619 ft 434 kts 69°
2026-05-09 07:15 33.35031 131.00982 20221 ft 440 kts 70°
2026-05-09 07:15 33.35893 131.04531 20764 ft 448 kts 70°
2026-05-09 07:15 33.36763 131.08139 21340 ft 455 kts 70°
2026-05-09 07:15 33.37647 131.11798 21922 ft 462 kts 70°
2026-05-09 07:16 33.38697 131.15430 22371 ft 463 kts 59°
2026-05-09 07:16 33.40496 131.18565 22862 ft 454 kts 42°
2026-05-09 07:16 33.42638 131.21397 23287 ft 464 kts 41°
2026-05-09 07:16 33.44805 131.24305 23844 ft 471 kts 43°
2026-05-09 07:17 33.46965 131.27280 24411 ft 476 kts 43°
2026-05-09 07:17 33.49124 131.30307 25021 ft 480 kts 44°
2026-05-09 07:17 33.51284 131.33380 25540 ft 485 kts 44°
2026-05-09 07:17 33.53468 131.36487 25996 ft 491 kts 44°
2026-05-09 07:18 33.55693 131.39648 26429 ft 498 kts 44°
2026-05-09 07:18 33.57934 131.42837 26902 ft 503 kts 44°
2026-05-09 07:18 33.60194 131.46058 27370 ft 508 kts 44°
2026-05-09 07:18 33.62477 131.49315 27817 ft 514 kts 45°
2026-05-09 07:19 33.64001 131.51492 28092 ft 517 kts 45°
2026-05-09 07:19 33.66327 131.54821 28547 ft 522 kts 45°
2026-05-09 07:19 33.68667 131.58168 29024 ft 524 kts 45°
2026-05-09 07:19 33.71024 131.61536 29397 ft 530 kts 45°
2026-05-09 07:20 33.73402 131.64932 29739 ft 536 kts 45°
2026-05-09 07:20 33.75818 131.68383 30086 ft 541 kts 45°
2026-05-09 07:20 33.78247 131.71859 30439 ft 544 kts 45°
2026-05-09 07:20 33.80684 131.75354 30837 ft 546 kts 45°
2026-05-09 07:21 33.83127 131.78863 31218 ft 548 kts 45°
2026-05-09 07:21 33.85574 131.82383 31614 ft 550 kts 45°
2026-05-09 07:21 33.88040 131.85931 31859 ft 555 kts 45°
2026-05-09 07:21 33.90521 131.89504 32147 ft 558 kts 45°
2026-05-09 07:22 33.93012 131.93098 32477 ft 560 kts 45°
2026-05-09 07:22 33.95507 131.96702 32837 ft 561 kts 45°
2026-05-09 07:22 33.98009 132.00319 33164 ft 563 kts 45°
2026-05-09 07:22 34.00516 132.03947 33429 ft 565 kts 45°
2026-05-09 07:23 34.03036 132.07598 33685 ft 568 kts 45°
2026-05-09 07:23 34.05568 132.11266 33966 ft 570 kts 45°
2026-05-09 07:23 34.08170 132.14854 34374 ft 565 kts 41°
2026-05-09 07:23 34.10971 132.18129 34803 ft 557 kts 34°
2026-05-09 07:24 34.13890 132.21159 35062 ft 556 kts 34°
2026-05-09 07:24 34.16859 132.24190 35247 ft 559 kts 34°
2026-05-09 07:24 34.19817 132.27232 35531 ft 559 kts 34°
2026-05-09 07:24 34.22769 132.30313 35901 ft 558 kts 34°
2026-05-09 07:25 34.25681 132.33389 36352 ft 555 kts 34°
2026-05-09 07:25 34.28573 132.36460 36699 ft 554 kts 34°
2026-05-09 07:25 34.31476 132.39538 36986 ft 554 kts 34°
2026-05-09 07:25 34.34375 132.42608 37179 ft 555 kts 34°
2026-05-09 07:26 34.37288 132.45689 37410 ft 557 kts 34°
2026-05-09 07:26 34.40199 132.48771 37775 ft 554 kts 34°
2026-05-09 07:26 34.43097 132.51846 38119 ft 553 kts 34°
2026-05-09 07:26 34.45673 132.54583 38372 ft 553 kts 34°
2026-05-09 07:27 34.48539 132.57629 38682 ft 552 kts 34°
2026-05-09 07:27 34.51439 132.60720 39048 ft 549 kts 34°
2026-05-09 07:27 34.57181 132.66847 39092 ft 552 kts 34°
2026-05-09 07:28 34.62956 132.73010 39089 ft 554 kts 34°
2026-05-09 07:28 34.68741 132.79204 39084 ft 555 kts 34°
2026-05-09 07:29 34.74321 132.85192 39093 ft 555 kts 34°
2026-05-09 07:29 34.80103 132.91410 39110 ft 555 kts 34°
2026-05-09 07:30 34.85888 132.97645 39101 ft 555 kts 34°
2026-05-09 07:30 34.91654 133.03863 39100 ft 553 kts 34°
2026-05-09 07:31 34.97415 133.10075 39106 ft 552 kts 34°
2026-05-09 07:31 35.03114 133.16235 39135 ft 551 kts 34°
2026-05-09 07:32 35.08836 133.22438 39121 ft 550 kts 34°
2026-05-09 07:32 35.14551 133.28647 39133 ft 550 kts 34°
2026-05-09 07:33 35.22889 133.37729 39116 ft 551 kts 34°
2026-05-09 07:34 35.28604 133.43966 39120 ft 552 kts 34°
2026-05-09 07:34 35.34331 133.50231 39120 ft 551 kts 35°
2026-05-09 07:35 35.40049 133.56501 39141 ft 551 kts 34°
2026-05-09 07:35 35.45746 133.62760 39104 ft 549 kts 35°
2026-05-09 07:36 35.51416 133.69001 39156 ft 547 kts 34°
2026-05-09 07:36 35.57086 133.75247 39140 ft 548 kts 35°
2026-05-09 07:37 35.62747 133.81500 39123 ft 548 kts 35°
2026-05-09 07:37 35.68389 133.87747 39126 ft 548 kts 35°
2026-05-09 07:38 35.74058 133.94035 39141 ft 548 kts 35°
2026-05-09 07:38 35.79721 134.00329 39138 ft 549 kts 35°
2026-05-09 07:39 35.85389 134.06641 39128 ft 550 kts 35°
2026-05-09 07:39 35.91064 134.12975 39128 ft 550 kts 35°
2026-05-09 07:40 35.96739 134.19321 39126 ft 550 kts 35°
2026-05-09 07:40 36.02365 134.25626 39150 ft 551 kts 35°
2026-05-09 07:41 36.08037 134.31996 39125 ft 551 kts 35°
2026-05-09 07:41 36.13669 134.38337 39138 ft 551 kts 35°
2026-05-09 07:42 36.19298 134.44686 39128 ft 551 kts 35°
2026-05-09 07:42 36.24633 134.51575 39140 ft 560 kts 46°
2026-05-09 07:43 36.29034 134.59562 39128 ft 566 kts 55°
2026-05-09 07:43 36.33043 134.67886 39118 ft 567 kts 55°
2026-05-09 07:44 36.37089 134.76281 39127 ft 567 kts 55°
2026-05-09 07:44 36.41173 134.84649 39116 ft 568 kts 55°
2026-05-09 07:45 36.45282 134.93033 39123 ft 569 kts 55°
2026-05-09 07:45 36.49396 135.01452 39117 ft 570 kts 55°
2026-05-09 07:46 36.53498 135.09880 39143 ft 571 kts 55°
2026-05-09 07:46 36.57612 135.18359 39114 ft 572 kts 55°
2026-05-09 07:47 36.61723 135.26854 39114 ft 573 kts 55°
2026-05-09 07:47 36.65827 135.35352 39108 ft 573 kts 55°
2026-05-09 07:48 36.69930 135.43872 39112 ft 573 kts 56°
2026-05-09 07:48 36.74026 135.52398 39114 ft 574 kts 56°
2026-05-09 07:49 36.78126 135.60953 39106 ft 574 kts 56°
2026-05-09 07:49 36.82217 135.69514 39127 ft 575 kts 56°
2026-05-09 07:50 36.86303 135.78087 39109 ft 575 kts 56°
2026-05-09 07:50 36.90388 135.86682 39101 ft 575 kts 56°
2026-05-09 07:51 36.94468 135.95290 39100 ft 575 kts 56°
2026-05-09 07:51 36.98533 136.03887 39104 ft 575 kts 56°
2026-05-09 07:52 37.02599 136.12493 39115 ft 574 kts 56°
2026-05-09 07:52 37.06634 136.21053 39107 ft 575 kts 56°
2026-05-09 07:53 37.10688 136.29686 39098 ft 575 kts 56°
2026-05-09 07:53 37.14759 136.38383 39095 ft 575 kts 56°
2026-05-09 07:54 37.18771 136.46978 39103 ft 575 kts 56°
2026-05-09 07:54 37.22805 136.55642 39103 ft 575 kts 56°
2026-05-09 07:55 37.26836 136.64320 39090 ft 576 kts 56°
2026-05-09 07:55 37.30869 136.73026 39114 ft 579 kts 56°
2026-05-09 07:56 37.34935 136.81810 39105 ft 585 kts 57°
2026-05-09 07:56 37.39016 136.90668 39088 ft 586 kts 57°
2026-05-09 07:57 37.43097 136.99566 39090 ft 588 kts 57°
2026-05-09 07:57 37.47181 137.08484 39082 ft 588 kts 57°
2026-05-09 07:58 37.51164 137.17202 39090 ft 588 kts 57°
2026-05-09 07:58 37.55234 137.26128 39075 ft 587 kts 57°
2026-05-09 07:59 37.59288 137.35043 39084 ft 586 kts 57°
2026-05-09 07:59 37.63329 137.43961 39077 ft 585 kts 57°
2026-05-09 08:00 37.67363 137.52887 39059 ft 585 kts 57°
2026-05-09 08:00 37.71384 137.61807 39075 ft 584 kts 57°
2026-05-09 08:01 37.75360 137.70653 39063 ft 583 kts 57°
2026-05-09 08:01 37.79388 137.79639 39058 ft 583 kts 57°
2026-05-09 08:02 37.83351 137.88508 39057 ft 583 kts 57°
2026-05-09 08:02 37.87328 137.97432 39056 ft 582 kts 57°
2026-05-09 08:03 37.91299 138.06371 39054 ft 582 kts 57°
2026-05-09 08:03 37.95265 138.15314 39051 ft 583 kts 57°
2026-05-09 08:04 37.99228 138.24277 39081 ft 583 kts 57°
2026-05-09 08:04 38.03197 138.33237 39041 ft 582 kts 55°
2026-05-09 08:05 38.08139 138.41198 39044 ft 569 kts 39°
2026-05-09 08:05 38.14165 138.47488 39039 ft 554 kts 25°
2026-05-09 08:06 38.19608 138.51859 39041 ft 551 kts 24°
2026-05-09 08:06 38.26058 138.56992 39038 ft 550 kts 24°
2026-05-09 08:07 38.32498 138.62223 39018 ft 549 kts 25°
2026-05-09 08:07 38.38905 138.67506 39018 ft 547 kts 25°
2026-05-09 08:08 38.45220 138.72737 39047 ft 547 kts 25°
2026-05-09 08:08 38.51586 138.78013 39020 ft 546 kts 26°
2026-05-09 08:09 38.57954 138.83298 39029 ft 545 kts 26°
2026-05-09 08:09 38.64312 138.88583 39015 ft 545 kts 26°
2026-05-09 08:10 38.70660 138.93873 39009 ft 544 kts 26°
2026-05-09 08:10 38.77010 138.99175 39028 ft 544 kts 26°
2026-05-09 08:11 38.83351 139.04483 39000 ft 544 kts 26°
2026-05-09 08:11 38.89680 139.09792 39004 ft 543 kts 26°
2026-05-09 08:12 38.99156 139.17762 38990 ft 543 kts 26°
2026-05-09 08:12 39.05470 139.23086 39002 ft 542 kts 26°
2026-05-09 08:13 39.11767 139.28408 38989 ft 542 kts 26°
2026-05-09 08:13 39.18061 139.33739 39001 ft 541 kts 26°
2026-05-09 08:14 39.24306 139.39040 38986 ft 541 kts 26°
2026-05-09 08:14 39.30578 139.44375 38978 ft 540 kts 26°
2026-05-09 08:15 39.36857 139.49729 38983 ft 540 kts 27°
2026-05-09 08:15 39.43123 139.55083 38982 ft 540 kts 27°
2026-05-09 08:16 39.49380 139.60441 38986 ft 540 kts 27°
2026-05-09 08:16 39.55656 139.65827 38971 ft 540 kts 27°
2026-05-09 08:17 39.61920 139.71216 38970 ft 541 kts 27°
2026-05-09 08:17 39.68185 139.76618 38969 ft 541 kts 27°
2026-05-09 08:18 39.74418 139.82008 38971 ft 541 kts 27°
2026-05-09 08:18 39.80687 139.87437 38968 ft 541 kts 27°
2026-05-09 08:19 39.86938 139.92891 38963 ft 541 kts 28°
2026-05-09 08:19 39.93173 139.98380 38955 ft 541 kts 28°
2026-05-09 08:20 39.99401 140.03877 38978 ft 541 kts 28°
2026-05-09 08:20 40.05635 140.09387 38964 ft 541 kts 28°
2026-05-09 08:21 40.11870 140.14909 38945 ft 541 kts 28°
2026-05-09 08:21 40.18094 140.20434 38938 ft 541 kts 28°
2026-05-09 08:22 40.24305 140.25960 38934 ft 540 kts 28°
2026-05-09 08:22 40.30518 140.31499 38944 ft 540 kts 28°
2026-05-09 08:23 40.36720 140.37041 38952 ft 540 kts 28°
2026-05-09 08:23 40.42921 140.42594 38948 ft 539 kts 28°
2026-05-09 08:24 40.49078 140.48119 38941 ft 540 kts 29°
2026-05-09 08:24 40.55249 140.53679 38787 ft 531 kts 29°
2026-05-09 08:25 40.58278 140.56418 38216 ft 528 kts 28°
2026-05-09 08:25 40.61314 140.59157 37382 ft 530 kts 29°
2026-05-09 08:25 40.64361 140.61906 36515 ft 533 kts 28°
2026-05-09 08:25 40.67407 140.64662 35410 ft 527 kts 29°
2026-05-09 08:26 40.70414 140.67382 34277 ft 523 kts 28°